This demonstration page uses our WeatherBlox Daily Observations layout. Learn more.

Left ArrowRight Arrow

47.50024, -111.30081

Hourly Observations for March 14, 2015

Temp ( °F °C ) Dew Point ( °F °C ) Humidity (%) Winds ( mph kmh ) Pressure ( in mb ) Visibility ( mi km ) Precip ( " mm )
12:53 am 00:53 Clear 53 11.7 17 -8.3 24 24 S 15 24 30.04 1017 10 16 0.00 0.00
1:53 am 01:53 Clear 55 12.8 18 -7.8 23 23 SSW 20 31 29.99 1016 10 16 0.00 0.00
2:53 am 02:53 Clear 54 12.2 19 -7.2 25 25 S 20 31 29.97 1015 10 16 0.00 0.00
3:53 am 03:53 Clear 53 11.7 19 -7.2 26 26 S 22 35 29.96 1014 10 16 0.00 0.00
4:53 am 04:53 Clear 54 12.2 19 -7.2 25 25 S 21 33 29.92 1013 10 16 0.00 0.00
5:53 am 05:53 Clear 55 12.8 18 -7.8 23 23 SW 20 31 29.91 1013 10 16 0.00 0.00
6:53 am 06:53 Clear 54 12.2 18 -7.8 24 24 S 14 22 29.88 1012 10 16 0.00 0.00
7:53 am 07:53 Sunny 53 11.7 19 -7.2 26 26 S 16 26 29.90 1012 10 16 0.00 0.00
8:53 am 08:53 Sunny 54 12.2 19 -7.2 25 25 S 14 22 29.85 1011 10 16 0.00 0.00
9:53 am 09:53 Sunny 60 15.6 17 -8.3 19 19 S 24 39 29.82 1010 10 16 0.00 0.00
10:53 am 10:53 Sunny 63 17.2 19 -7.2 18 18 S 23 37 29.77 1008 10 16 0.00 0.00
11:53 am 11:53 Sunny 67 19.4 17 -8.3 15 15 SW 32 52 29.71 1006 10 16 0.00 0.00
12:53 pm 12:53 Sunny 69 20.6 21 -6.1 16 16 SW 32 52 29.68 1005 10 16 0.00 0.00
1:53 pm 13:53 Sunny 71 21.7 23 -5 16 16 SW 26 43 29.67 1005 10 16 0.00 0.00
2:53 pm 14:53 Mostly Sunny 70 21.1 27 -2.8 20 20 WSW 31 50 29.65 1004 10 16 0.00 0.00
3:53 pm 15:53 Sunny 68 20 32 0 26 26 WSW 38 61 29.64 1004 10 16 0.00 0.00
4:53 pm 16:53 Sunny 65 18.3 34 1.1 32 32 WSW 35 56 29.67 1005 10 16 0.00 0.00
5:53 pm 17:53 Sunny 62 16.7 36 2.2 38 38 WSW 25 41 29.69 1006 10 16 0.00 0.00
6:53 pm 18:53 Sunny 61 16.1 36 2.2 39 39 WSW 38 61 29.67 1005 10 16 0.00 0.00
7:53 pm 19:53 Mostly Clear 59 15 36 2.2 42 42 WSW 28 44 29.73 1007 10 16 0.00 0.00
8:53 pm 20:53 Clear 58 14.4 36 2.2 44 44 WSW 28 44 29.72 1006 10 16 0.00 0.00
9:53 pm 21:53 Clear 57 13.9 37 2.8 47 47 SW 24 39 29.72 1007 10 16 0.00 0.00
10:53 pm 22:53 Clear 56 13.3 38 3.3 51 51 WSW 25 41 29.71 1006 10 16 0.00 0.00
11:53 pm 23:53 Clear 56 13.3 38 3.3 51 51 WSW 18 30 29.73 1007 10 16 0.00 0.00

Powered by AerisWeather